Location: Proctor
(47.8934°N, 114.3048°W)
Time: 18:26:22
(UTC+00:00)

Transit 4A - Pass Details

Date: 21 May 2025
Orbit: 866 x 975 km, 66.8° (Epoch: 13 June)

Event Time Altitude Azimuth Distance (km) Brightness Sun altitude
Rises 04:38:43 0° 275° (W) 3,655 11.8 -11.4°
Reaches altitude 10° 04:42:11 10° 293° (WNW) 2,696 11.4 -11.8°
Maximum altitude 04:46:26 18° 336° (NNW) 2,127 10.9 -12.2°
Drops below altitude 10° 04:50:38 10° 19° (NNE) 2,655 10.7 -12.7°
Sets 04:54:02 0° 38° (NE) 3,578 11.1 -13.0°
